sat.trackr.live / text

‹ back to catalog

STARLINK-34151

NORAD 64120 · 2025-110AA

PAYLOAD ACTIVE UNKNOWN

§ Identity

Operator
Country
US
Launch date
2025-05-23
Launch site
AFWTR
Launch vehicle
Mass (kg)
RCS (m²)

Purposes: comms

External: N2YO · Heavens-Above · Gunter

§ Orbital elements

Epoch: 2026-09-20T22:00:03.000096Z

Period
93.90 min
Inclination
53.1600°
Eccentricity
0.0001503
Mean motion
15.33561369 rev/d
Perigee alt
464.2 km
Apogee alt
466.2 km
Semi-major
6,843.3 km
B*
-3.5593e-4
RAAN
199.4473°
Arg perigee
87.5621°
Mean anomaly
137.7491°
Rev number
561

§ Raw data

STARLINK-341511 64120U 25110AA  26263.91670139 -.00012065  00000+0 -35593-3 0  99902 64120  53.1600 199.4473 0001503  87.5621 137.7491 15.33561369  5611

JSON: /api/v1/satellites/64120 · /tle

For live sub-satellite position, see the globe view (requires WebGL).

§ Visibility from observer

Set your observer location to see the next 7 days of passes ≥ 10°. The values pass through the URL so the page stays shareable.

No JS? Fill the form by hand. The geolocation button needs JavaScript.